| time (UTC) | temp C | wind direction | speed KPH | gust KPH | rain 1hr cm | rain 24hr cm | rain mn cm | humidity % | barometer mb |
| 20260503224436 | 21 | 230 | 4.8 | 0.0 | 0.00 | 0.00 | 0.00 | 39 | 1009.8 |
| 20260503222936 | 21 | 18 | 6.4 | 0.0 | 0.00 | 0.00 | 0.00 | 37 | 1009.8 |
| 20260503221436 | 21 | 156 | 0.0 | 0.0 | 0.00 | 0.00 | 0.00 | 36 | 1009.8 |
| 20260503215936 | 21 | 277 | 1.6 | 0.0 | 0.00 | 0.00 | 0.00 | 34 | 1009.8 |
| 20260503214436 | 21 | 236 | 12.9 | 0.0 | 0.00 | 0.00 | 0.00 | 33 | 1009.8 |
| 20260503212936 | 21 | 90 | 4.8 | 0.0 | 0.00 | 0.00 | 0.00 | 33 | 1009.8 |
| 20260503211436 | 21 | 259 | 8.0 | 0.0 | 0.00 | 0.00 | 0.00 | 33 | 1009.8 |
| 20260503205936 | 21 | 224 | 11.3 | 0.0 | 0.00 | 0.00 | 0.00 | 33 | 1010.3 |
| 20260503204436 | 21 | 347 | 1.6 | 0.0 | 0.00 | 0.00 | 0.00 | 35 | 1010.3 |
| 20260503202936 | 21 | 339 | 6.4 | 0.0 | 0.00 | 0.00 | 0.00 | 36 | 1010.3 |
| 20260503201436 | 20 | 304 | 3.2 | 0.0 | 0.00 | 0.00 | 0.00 | 40 | 1010.3 |
| 20260503195936 | 21 | 259 | 11.3 | 0.0 | 0.00 | 0.00 | 0.00 | 39 | 1011.4 |
| 20260503194436 | 21 | 267 | 6.4 | 0.0 | 0.00 | 0.00 | 0.00 | 38 | 1011.4 |
| 20260503192936 | 21 | 307 | 9.7 | 0.0 | 0.00 | 0.00 | 0.00 | 39 | 1011.4 |
| 20260503191453 | 20 | 26 | 8.0 | 0.0 | 0.00 | 0.00 | 0.00 | 39 | 1011.4 |
| 20260503185936 | 20 | 244 | 11.3 | 0.0 | 0.00 | 0.00 | 0.00 | 41 | 1012.2 |
| 20260503184436 | 21 | 327 | 6.4 | 0.0 | 0.00 | 0.00 | 0.00 | 41 | 1012.2 |
| 20260503182936 | 19 | 290 | 3.2 | 0.0 | 0.00 | 0.00 | 0.00 | 44 | 1012.2 |
| 20260503181436 | 20 | 1 | 4.8 | 0.0 | 0.00 | 0.00 | 0.00 | 44 | 1012.2 |
| 20260503175936 | 19 | 21 | 9.7 | 0.0 | 0.00 | 0.00 | 0.00 | 49 | 1012.7 |
| 20260503174436 | 19 | 245 | 17.7 | 0.0 | 0.00 | 0.00 | 0.00 | 49 | 1012.7 |
| 20260503172936 | 18 | 24 | 6.4 | 0.0 | 0.00 | 0.00 | 0.00 | 54 | 1012.7 |
| 20260503171453 | 18 | 31 | 6.4 | 0.0 | 0.00 | 0.00 | 0.00 | 55 | 1012.7 |
| 20260503081436 | 7 | 253 | 0.0 | 0.0 | 0.00 | 0.00 | 0.00 | 95 | 1010.5 |
| 20260503072936 | 8 | 253 | 1.6 | 0.0 | 0.00 | 0.00 | 0.00 | 96 | 1009.8 |
| 20260503071453 | 8 | 333 | 0.0 | 0.0 | 0.00 | 0.00 | 0.00 | 96 | 1009.8 |
| 20260503054436 | 10 | 323 | 1.6 | 0.0 | 0.00 | 0.00 | 2.06 | 95 | 1009.8 |
| 20260503052936 | 11 | 252 | 1.6 | 0.0 | 0.00 | 0.00 | 2.06 | 95 | 1009.8 |
| 20260503051436 | 10 | 189 | 3.2 | 0.0 | 0.00 | 0.00 | 2.06 | 95 | 1009.8 |
| 20260503045936 | 10 | 257 | 3.2 | 0.0 | 0.00 | 0.00 | 2.06 | 95 | 1009.4 |
| 20260503044436 | 10 | 343 | 1.6 | 0.0 | 0.00 | 0.00 | 2.06 | 95 | 1009.4 |
| 20260503042936 | 10 | 326 | 0.0 | 0.0 | 0.00 | 0.00 | 2.06 | 94 | 1009.4 |
| 20260503041436 | 10 | 354 | 6.4 | 0.0 | 0.00 | 0.00 | 2.06 | 95 | 1009.4 |
| 20260503035936 | 10 | 330 | 0.0 | 0.0 | 0.00 | 0.00 | 2.06 | 95 | 1008.5 |
| 20260503034436 | 10 | 213 | 1.6 | 0.0 | 0.00 | 0.00 | 2.06 | 95 | 1008.5 |
| 20260503032936 | 10 | 315 | 0.0 | 0.0 | 0.00 | 0.00 | 2.06 | 95 | 1008.5 |
| 20260503031436 | 10 | 19 | 1.6 | 0.0 | 0.00 | 0.00 | 2.06 | 94 | 1008.5 |
| 20260503025936 | 10 | 256 | 1.6 | 0.0 | 0.00 | 0.00 | 2.06 | 94 | 1007.8 |
| 20260503024436 | 10 | 0 | 0.0 | 0.0 | 0.00 | 0.00 | 2.06 | 94 | 1007.8 |
| 20260503022936 | 10 | 0 | 0.0 | 0.0 | 0.00 | 0.00 | 2.06 | 94 | 1007.8 |
| 20260503021453 | 10 | 0 | 0.0 | 0.0 | 0.00 | 0.00 | 2.06 | 94 | 1007.8 |
| 20260503015953 | 10 | 0 | 0.0 | 0.0 | 0.00 | 0.00 | 2.06 | 94 | 1007.5 |
| 20260503014453 | 10 | 280 | 0.0 | 0.0 | 0.00 | 0.00 | 2.06 | 93 | 1007.5 |
| 20260503012936 | 10 | 3 | 1.6 | 0.0 | 0.00 | 0.00 | 2.06 | 93 | 1007.5 |
| 20260503011436 | 10 | 254 | 0.0 | 0.0 | 0.00 | 0.00 | 2.06 | 93 | 1007.5 |
| 20260503005953 | 10 | 9 | 0.0 | 0.0 | 0.00 | 0.00 | 2.06 | 93 | 1006.1 |
| 20260503004436 | 11 | 47 | 3.2 | 0.0 | 0.00 | 0.00 | 2.06 | 92 | 1006.1 |
| 20260503002936 | 11 | 354 | 1.6 | 0.0 | 0.00 | 0.00 | 2.06 | 91 | 1006.1 |
| 20260503001436 | 11 | 0 | 3.2 | 0.0 | 0.00 | 0.00 | 2.06 | 90 | 1006.1 |
| 20260502235936 | 12 | 85 | 1.6 | 0.0 | 0.00 | 0.00 | 2.06 | 90 | 1005.5 |
| 20260502234453 | 12 | 60 | 11.3 | 0.0 | 0.00 | 0.00 | 2.06 | 90 | 1005.5 |
| 20260502232953 | 12 | 50 | 16.1 | 0.0 | 0.00 | 0.00 | 2.06 | 90 | 1005.5 |
| 20260502231436 | 12 | 56 | 6.4 | 0.0 | 0.00 | 0.00 | 2.06 | 91 | 1005.5 |
| 20260502225936 | 12 | 58 | 4.8 | 0.0 | 0.00 | 0.00 | 2.06 | 91 | 1005.4 |